Other Public Products
Issued by NWS Grand Forks, ND

Home | Current Version | Previous Version | Graphics & Text | Print | Product List | Glossary On
Versions: 1 2 3 4 5 6 7 8 9 10 11 12 13 14 15 16 17 18 19 20 21 22 23 24 25 26 27 28 29 30 31 32 33 34 35 36 37 38 39 40 41 42 43 44 45 46 47 48 49 50
000
FPUS83 KFGF 191310
OPUFGF
PRAIRIE TO PINES WEATHER ROUNDUP
NATIONAL WEATHER SERVICE EASTERN NORTH DAKOTA/GRAND FORKS ND
800 AM CDT SUN APR 19 2015

 **SATELLITE DATA USED TO AUGMENT SKY COVER AT AUTOMATED STATIONS**
 *****  WEATHER ACROSS EASTERN NORTH DAKOTA  *****

CITY           SKY/WX    TMP DP  RH WIND       PRES   REMARKS
GRAND FORKS    LGT RAIN  46  45  96 NW8       29.72F
GRAND FORKS AF LGT RAIN  45  43  93 NW14      29.73S
GRAND CITY NWS   N/A     45 N/A N/A N3          N/A
BUXTON         NOT AVBL
DEVILS LAKE    CLOUDY    43  36  75 NW16G22   29.79S
FARGO          LGT RAIN  49  47  93 NW13      29.70F
WAHPETON ARPT  CLOUDY    46  45  93 NW14G24   29.69F
$$

 *****  WEATHER ACROSS CENTRAL AND WESTERN NORTH DAKOTA  *****

CITY           SKY/WX    TMP DP  RH WIND       PRES   REMARKS
JAMESTOWN      CLOUDY    43  40  89 NW20      29.80R
BISMARCK       MOSUNNY   40  31  70 NW13      29.92S
MINOT          CLOUDY    40  32  73 W18G25    29.89S
MINOT AFB      PTSUNNY   39  38  98 NW15      29.88S
GARRISON         N/A     39  33  79 NW16      29.91S
WILLISTON      CLOUDY    42  32  67 NW24G31   30.01R
DICKINSON      CLOUDY    35  28  75 W14       29.98R
HETTINGER      CLEAR     34  26  72 W17       30.01S WCI  23
$$

 *****  OTHER OBSERVATIONS NORTHEAST NORTH DAKOTA  *****

CITY           SKY/WX    TMP DP  RH WIND       PRES   REMARKS
WALHALLA       LGT RAIN  45  45 100 W12       29.74F
LANGDON        CLOUDY    41  41 100 NW16      29.76S FOG
CAVALIER       LGT RAIN  45  41  87 NW13      29.73F
GRAFTON        LGT RAIN  45  45 100 NW13      29.74S
CANDO          PTSUNNY   41  37  87 NW10      29.80F
FORT TOTTEN      N/A     41  40  95 NW8       29.95S
ROLLA          LGT RAIN  39  37  93 NW18      29.81S
RUGBY          NOT AVBL
 ***** THE ABOVE OBSERVATIONS ARE NON NWS ARE NOT QUALITY
        CONTROLLED AND MAY MIS-REPORT RAIN FOR SNOW...
$$

 *****  OTHER OBSERVATIONS SOUTHEAST NORTH DAKOTA *****

CITY           SKY/WX    TMP DP  RH WIND       PRES   REMARKS
COOPERSTOWN    NOT AVBL
VALLEY CITY    CLOUDY    41  41 100 NW17G30   29.77S
OAKES            N/A     45  45 100 NW24G33   29.77R
GWINNER        CLOUDY    46  46 100 N25G31    29.76R
BUFFALO        NOT AVBL
WYNDMERE         N/A     48  48 100 NW12        N/A
 ***** THE ABOVE OBSERVATIONS ARE NON NWS ARE NOT QUALITY
       CONTROLLED AND MAY MIS-REPORT RAIN FOR SNOW...
$$

  *****  WEATHER ACROSS NORTHERN MINNESOTA  *****

CITY           SKY/WX    TMP DP  RH WIND       PRES   REMARKS
FLAG ISLAND    LGT RAIN  37  36  93 SE5       29.75S
WARROAD        DRIZZLE   41  37  87 E3        29.73F
ROSEAU         DRIZZLE   43  37  81 SE8       29.72F
HALLOCK        RAIN      46  45  93 N10       29.71F
THF RVR FALLS  CLOUDY    45  43  93 E3        29.71F
HALSTAD        NOT AVBL
FOSSTON        DRIZZLE   43  39  87 CALM      29.71S
BAUDETTE       LGT RAIN  40  38  93 SE8       29.74F
WASKISH        LGT RAIN  39  39 100 CALM      29.73S
CROOKSTON      RAIN      46  46 100 NW7       29.71F
$$
  *****  WEATHER ACROSS CENTRAL AND WEST MINNESOTA  *****

CITY           SKY/WX    TMP DP  RH WIND       PRES   REMARKS
BEMIDJI        DRIZZLE   39  38  97 E5        29.69F
PARK RAPIDS    CLOUDY    41  39  93 NE7       29.67F FOG
WADENA         DRIZZLE   43  43 100 E5        29.65R
DETROIT LAKES  CLOUDY    45  41  87 CALM      29.69S
MOORHEAD       DRIZZLE   46  46 100 N12       29.70F
FERGUS FALLS   CLOUDY    45  45 100 N8G16     29.69S
ELBOW LAKE     CLOUDY    45  45 100 NW12      29.68R
MORRIS MN      CLOUDY    48  46  93 NW16      29.69R
STAPLES        DRIZZLE   45  43  93 SE3       29.65F
WHEATON        CLOUDY    46  45  93 NW16G22   29.73R
$$
  *****  WEATHER ELSEWHERE ACROSS MINNESOTA  *****

CITY           SKY/WX    TMP DP  RH WIND       PRES   REMARKS
DULUTH         LGT RAIN  38  36  92 E17       29.76F FOG
INTRNTL FALLS  LGT RAIN  40  38  93 E6        29.75F
ELY            RAIN      36  34  93 E3        29.78S
CLOQUET        LGT RAIN  37  36  93 E9        29.75F
BRAINERD       LGT RAIN  43  42  97 SE8       29.67F FOG
HIBBING        RAIN      37  35  92 E8        29.73F
ALEXANDRIA     CLOUDY    48  46  93 W12       29.66S
SAINT CLOUD    CLOUDY    48  45  89 SE12      29.68F
MINNEAPOLIS    CLOUDY    48  45  89 SE9       29.72F
$$

  *****  WEATHER ACROSS SOUTH DAKOTA  *****

CITY           SKY/WX    TMP DP  RH WIND       PRES   REMARKS
SIOUX FALLS    CLOUDY    50  48  93 NW18G25   29.75R
BROOKINGS      CLOUDY    48  46  93 NW16G23   29.76R
WATERTOWN      CLOUDY    48  45  89 NW14      29.74R
HURON          CLOUDY    46  42  86 NW21G30   29.83R
SISSETON         N/A     48  47  96 N17       29.72R
ABERDEEN       CLOUDY    46  41  82 NW21G28   29.83R
MITCHELL       CLOUDY    48  44  86 NW23G29   29.83S
PIERRE         SUNNY     42  35  76 NW17      29.94R
MOBRIDGE       MOSUNNY   42  34  73 NW17G25   29.90S
RAPID CITY     CLEAR     37  25  61 NW18      30.08R
$$

  *****  SOME WEATHER IN NEARBY STATES *****

CITY           SKY/WX    TMP DP  RH WIND       PRES   REMARKS
GLASGOW MT     CLOUDY    35  26  69 NW17      30.16R WCI  25
GREAT FALLS MT CLEAR     30  27  88 SW5       30.26S
CHEYENNE WY    CLOUDY    31  22  69 N18G26    30.12R WCI  19
SCOTTSBLUFF NE PTCLDY    38  32  79 NW17      30.12R
OMAHA NE       RAIN      56  55  97 W9        29.72F FOG
DES MOINES IA  CLOUDY    59  57  93 SE5       29.73F FOG
DAVENPORT IA   PTSUNNY   56  43  61 E10       29.77F
CHICAGO IL     PTSUNNY   54  33  45 E8        29.84F
EAU CLAIRE WI  CLOUDY    48  33  56 SE8       29.77F
LA CROSSE WI   CLOUDY    53  36  52 E8        29.79S
$$

  *****  SOME NATIONAL WEATHER *****

CITY           SKY/WX    TMP DP  RH WIND       PRES   REMARKS
LA GUARDIA NY  PTSUNNY   53  30  41 NE13      30.25R
RALEIGH NC     CLOUDY    67  64  90 E7        30.02F
ATLANTA GA     CLOUDY    68  64  88 SE10      29.82F
NEW ORLEANS LA PTSUNNY   71  67  87 SW7       29.80R
OKLAHOMA CITY  PTSUNNY   56  50  80 NW8       29.77R
ALBUQUERQUE NM PTCLDY    45  31  58 VRB3      30.05R
SALT LAKE CITY PTCLDY    44  33  65 S7        30.06R
LOS ANGELES CA PTCLDY    56  54  93 CALM      29.96R
BOISE ID       PTCLDY    42  25  50 SE5       30.15R
SEATTLE WA     CLEAR     48  41  76 NE7       30.21F
$$

*** WEATHER ACROSS MANITOBA...SASKATCHEWAN AND ONTARIO ***
                ***ONTARIO***

CITY           SKY/WX    TMP DP  RH WIND       PRES   REMARKS
GERALDTON      CLOUDY    34  25  69 SE7       30.07F
THUNDER BAY    CLOUDY    37  30  75 E15       29.94F
SIOUX LOOKOUT  LGT RAIN  37  28  70 SE6       29.84F
TORONTO        MOSUNNY   43  28  56 E20G25    30.26S
BIG TROUT LK   CLOUDY    37  27  65 SE9       30.00R
PICKLE LAKE    CLOUDY    37  23  56 SE12G21   29.89F
DRYDEN         LGT RAIN  36  30  80 SE14      29.80F
KENORA         NOT AVBL
$$
                *** MANITOBA***

CITY           SKY/WX    TMP DP  RH WIND       PRES   REMARKS
BRANDON        LGT RAIN  41  39  93 NW7       29.82R
DAUPHIN        CLOUDY    41  36  81 N20G26    29.87R
ISLAND LAKE    LGT RAIN  37  36  93 E3        29.81F
PILOT MOUND      N/A     39  37  93 W12G17      N/A
THE PAS        LGT SNOW  32  30  93 N18       29.97R WCI  20
THOMPSON       LGT SNOW  23  21  93 N16G25    30.01R WCI  10
WINNIPEG       LGT RAIN  45  43  93 NW10      29.73F
CHURCHILL      MOSUNNY   18  14  86 NE8       30.32R WCI   7
GILLAM         SNOW      23  21  93 NE15G25   30.06R VSB 1/2 WCI  10
$$
                ***SASKATCHEWAN***

CITY           SKY/WX    TMP DP  RH WIND       PRES   REMARKS
ESTEVAN        CLOUDY    39  34  81 NW20G26   29.96R
KINDERSLEY     PTCLDY    27  25  93 W5        30.23R WCI  21
LLOYDMINSTER   PTCLDY    30  27  86 W8        30.22R WCI  23
PRINCE ALBERT  LGT RAIN  36  32  87 N15G23    30.14R
REGINA         SHOWER    37  36  93 N23G31    30.05R
YORKTON        CLOUDY    37  34  87 NW21G29   29.94R
N. BATTLEFORD  CLEAR     30  28  93 NW8       30.22S WCI  23



USA.gov is the U.S. government's official web portal to all federal, state and local government web resources and services.